Location: Caltech
(34.1382°N, 118.1253°W)
Time: 03:21:36
(UTC-07:00)

Aureole 2 Rocket - Visible Passes

Search period start: 24 April 2018 00:00
Search period end: 04 May 2018 00:00
Orbit: 322 x 533 km, 73.9° (Epoch: 23 April)

Date Brightness Start Highest point End Pass type
(mag) Time Alt. Az. Time Alt. Az. Time Alt. Az.
24 Apr 3.5 04:27:25 10° N 04:31:00 47° ENE 04:34:19 10° SE visible
25 Apr 5.2 03:45:13 10° NNE 03:47:52 19° ENE 03:50:23 10° ESE visible
25 Apr 3.9 05:19:58 10° NW 05:22:32 19° W 05:24:58 10° SW visible
26 Apr 2.5 04:36:16 10° NNW 04:39:47 50° WSW 04:39:59 49° WSW visible
27 Apr 3.7 03:53:16 10° N 03:55:55 39° NNE 03:55:55 39° NNE visible
28 Apr 5.4 03:10:56 10° NNE 03:12:20 17° NE 03:12:20 17° NE visible
29 Apr 5.2 04:02:07 10° NNW 04:02:10 10° NNW 04:02:10 10° NNW visible
30 Apr 5.6 03:19:01 10° N 03:19:04 10° N 03:19:04 10° N visible
